COSMOS 2251 DEB, 34878

Orbit data source: Space-Track

COSMOS 2251 DEB, 34878 is space debris in LEO originally from a launch on Wed, 16 Jun 1993 UTC launched from the Plesetsk Missile And Space Complex (PKMTR). The debris from Iridium 33, an American commercial communications satellite, has been tracked extensively since its accidental collision with the defunct Russian satellite Cosmos 2251 in 2009. This event, occurring at high speed in low Earth orbit (LEO), generated thousands of pieces of space debris, significantly increasing the risk of further collisions. The Iridium 33 debris cloud has impacted space traffic management and orbital debris mitigation strategies, making it a subject of ongoing study in space situational awareness.

Loading next visibility...
Identifier
34878, 1993-036ACR
Orbit
LEO
Country
Flag of CISCIS
Related business
Manufacturer
Unknown
Mission
Spacecraft
Bus & Motor
Unknown
Mass
Unknown
Launch date (UTC)
1993-06-16 (32 years ago)
Launch vehicle
Unknown
Launch site
Plesetsk Missile And Space Complex (PKMTR)
Object type
Payload
Rocket body
Debris
Shape & HBR
Unknown shape, 0.1 m
Radar Cross Section
Small (<0.1 m²)

Expand to show TLE details & history
Last TLE update: 3 days ago

TLE from 3 days ago
0 COSMOS 2251 DEB
1 34878U 93036ACR 25302.19061521  .00000776  00000-0  77271-3 0  9995
2 34878  73.9611 117.9933 0436263 110.3629   8.6106 13.44127291806748
Epoch: 2025-10-29T04:34Z
TLE epoch observation values (Epoch: 2025-10-29T04:34:29.154Z)
Latitude
56.65046°
Longitude
165.8526°
Altitude
781.018 km
Speed
7.628 km/s
True Right ascension
18h 08m 57s
True Declination
56° 29' 34"
Sunlit
Object was in daylight at epoch
Visualization orbit readout
Latitude
Unknown
Longitude
Unknown
Altitude
Unknown
Speed
Unknown
Apparent Right ascension
Unknown
Apparent Declination
Unknown
Sunlit
N/A
Visualization observer readout
Local Sidereal Time
01:12:25
Azimuth
Unknown
Elevation
Unknown
Doppler factor
Unknown
Orbital elements
Apogee altitude
1,417.551 km
Perigee altitude
765.79 km
Semi-major axis
7,469.808 km
Eccentricity
0.04363
Inclination
73.9611°
RAAN
117.9933°
Arg. of periapsis
110.3629°
True anomaly
9.4016°
Mean anomaly
8.6106°
Eccentric anomaly
9.0017°
Mean motion
3.36186 °/min
Orbital period
107.08 mins
BSTAR
0.00077271
Loading maneuver chart data...
Computing Atmospheric mass density...

Documentation

Showing up to 5 results
|